When you browse on this site, cookies collect data to enhance your experience and personalize the content and advertising you see.
Visit our Privacy Policy to learn more. By continuing to use the site, you agree to this use of cookies and data.
  • In Germany
  • List of Countries
  • For 7 days
  • Water Temperature
  • Weather Map
  • Weather Widgets
  • user-avatar
    Login

    Hourly Weather Durres

    Today, 23 November, Saturday

    Time Temperature Precipitation Wind Pressure Humidity
    00:00 +12°C° 0.1 mm 4 mps 761 mmHg 74%
    01:00 +12°C° 0.1 mm 5 mps 761 mmHg 73%
    02:00 +12°C° 0.1 mm 5 mps 761 mmHg 72%
    03:00 +10°C° 0.1 mm 5 mps 761 mmHg 70%
    04:00 +10°C° 0.1 mm 5 mps 761 mmHg 68%
    05:00 +10°C° 0.1 mm 5 mps 761 mmHg 67%
    06:00 +10°C° 0.1 mm 5 mps 761 mmHg 67%
    07:00 +10°C° 0.1 mm 5 mps 761 mmHg 66%
    08:00 +13°C° 0 mm 5 mps 761 mmHg 62%
    09:00 +15°C° 0 mm 5 mps 761 mmHg 57%
    10:00 +16°C° 0 mm 5 mps 760 mmHg 53%
    11:00 +17°C° 0.1 mm 5 mps 760 mmHg 51%
    12:00 +19°C° 0.1 mm 5 mps 760 mmHg 49%
    13:00 +20°C° 0.1 mm 5 mps 759 mmHg 47%
    14:00 +19°C° 0.1 mm 5 mps 759 mmHg 51%
    15:00 +17°C° 0.1 mm 5 mps 759 mmHg 56%
    16:00 +16°C° 0.1 mm 5 mps 759 mmHg 61%
    17:00 +15°C° 0.3 mm 5 mps 759 mmHg 62%
    18:00 +15°C° 0.3 mm 5 mps 759 mmHg 63%
    19:00 +14°C° 0.3 mm 5 mps 759 mmHg 64%
    20:00 +14°C° 0.3 mm 5 mps 759 mmHg 65%
    21:00 +13°C° 0.3 mm 5 mps 759 mmHg 65%
    22:00 +13°C° 0.3 mm 6 mps 759 mmHg 66%
    23:00 +13°C° 0.1 mm 5 mps 759 mmHg 68%

    Tomorrow, 24 November, Sunday

    Time Temperature Precipitation Wind Pressure Humidity
    00:00 +13°C° 0.1 mm 5 mps 759 mmHg 69%
    01:00 +12°C° 0.1 mm 5 mps 759 mmHg 71%
    02:00 +12°C° 0 mm 5 mps 759 mmHg 71%
    03:00 +12°C° 0 mm 5 mps 759 mmHg 72%
    04:00 +12°C° 0 mm 5 mps 758 mmHg 72%
    05:00 +12°C° 0 mm 5 mps 758 mmHg 72%
    06:00 +12°C° 0 mm 5 mps 758 mmHg 72%
    07:00 +12°C° 0 mm 5 mps 758 mmHg 73%
    08:00 +13°C° 0 mm 5 mps 758 mmHg 69%
    09:00 +15°C° 0 mm 5 mps 757 mmHg 65%
    10:00 +16°C° 0 mm 5 mps 757 mmHg 61%
    11:00 +17°C° 0 mm 5 mps 756 mmHg 58%
    12:00 +19°C° 0 mm 6 mps 756 mmHg 56%
    13:00 +20°C° 0 mm 6 mps 755 mmHg 53%
    14:00 +19°C° 0 mm 6 mps 755 mmHg 55%
    15:00 +17°C° 0 mm 7 mps 754 mmHg 58%
    16:00 +16°C° 0 mm 7 mps 754 mmHg 61%
    17:00 +16°C° 0 mm 8 mps 753 mmHg 61%
    18:00 +16°C° 0 mm 8 mps 753 mmHg 62%
    19:00 +15°C° 0 mm 8 mps 753 mmHg 62%
    20:00 +15°C° 0 mm 8 mps 753 mmHg 62%
    21:00 +15°C° 0 mm 8 mps 752 mmHg 62%
    22:00 +15°C° 0 mm 8 mps 752 mmHg 63%
    23:00 +15°C° 0 mm 8 mps 752 mmHg 64%

    Day after tomorrow, 25 November, Monday

    Time Temperature Precipitation Wind Pressure Humidity
    00:00 +15°C° 0 mm 7 mps 751 mmHg 65%
    01:00 +14°C° 0 mm 7 mps 751 mmHg 66%
    02:00 +14°C° 0 mm 5 mps 751 mmHg 67%
    03:00 +14°C° 0 mm 4 mps 751 mmHg 69%
    04:00 +14°C° 0 mm 3 mps 750 mmHg 70%
    05:00 +14°C° 0 mm 3 mps 750 mmHg 69%
    06:00 +14°C° 0 mm 3 mps 750 mmHg 69%
    07:00 +14°C° 0 mm 4 mps 750 mmHg 69%
    08:00 +14°C° 0.1 mm 4 mps 750 mmHg 70%
    09:00 +15°C° 0.1 mm 4 mps 750 mmHg 71%
    10:00 +15°C° 0.1 mm 4 mps 751 mmHg 72%
    11:00 +15°C° 0.5 mm 4 mps 751 mmHg 76%
    12:00 +14°C° 0.5 mm 3 mps 751 mmHg 80%
    13:00 +14°C° 0.5 mm 3 mps 751 mmHg 84%
    14:00 +15°C° 0.4 mm 2 mps 751 mmHg 85%
    15:00 +15°C° 0.4 mm 2 mps 751 mmHg 86%
    16:00 +14°C° 0.4 mm 2 mps 751 mmHg 88%
    17:00 +14°C° 0.1 mm 2 mps 751 mmHg 88%
    18:00 +14°C° 0.1 mm 2 mps 752 mmHg 88%
    19:00 +14°C° 0.1 mm 1 mps 752 mmHg 88%
    20:00 +14°C° 0.2 mm 2 mps 752 mmHg 85%
    21:00 +13°C° 0.2 mm 3 mps 753 mmHg 83%
    22:00 +13°C° 0.2 mm 3 mps 753 mmHg 81%
    23:00 +13°C° 0 mm 3 mps 753 mmHg 80%

    26 November, Tuesday

    Time Temperature Precipitation Wind Pressure Humidity
    00:00 +12°C° 0 mm 4 mps 753 mmHg 79%
    01:00 +12°C° 0 mm 4 mps 753 mmHg 77%
    02:00 +12°C° 0 mm 4 mps 753 mmHg 77%
    03:00 +12°C° 0 mm 4 mps 753 mmHg 77%
    04:00 +12°C° 0 mm 4 mps 753 mmHg 77%
    05:00 +11°C° 0 mm 4 mps 753 mmHg 77%
    06:00 +11°C° 0 mm 4 mps 754 mmHg 77%
    07:00 +11°C° 0 mm 3 mps 754 mmHg 77%
    08:00 +13°C° 0 mm 3 mps 754 mmHg 72%
    09:00 +14°C° 0 mm 3 mps 754 mmHg 67%
    10:00 +17°C° 0 mm 2 mps 754 mmHg 62%
    11:00 +17°C° 0 mm 2 mps 754 mmHg 61%
    12:00 +18°C° 0 mm 2 mps 754 mmHg 60%
    13:00 +18°C° 0 mm 2 mps 754 mmHg 58%
    14:00 +18°C° 0 mm 2 mps 754 mmHg 63%
    15:00 +17°C° 0 mm 2 mps 754 mmHg 68%
    16:00 +16°C° 0 mm 2 mps 754 mmHg 72%
    17:00 +15°C° 0 mm 2 mps 755 mmHg 74%
    18:00 +15°C° 0 mm 2 mps 755 mmHg 76%
    19:00 +14°C° 0 mm 1 mps 756 mmHg 79%
    20:00 +14°C° 0 mm 1 mps 756 mmHg 79%
    21:00 +13°C° 0 mm 1 mps 756 mmHg 80%
    22:00 +13°C° 0 mm 1 mps 757 mmHg 81%
    23:00 +13°C° 0 mm 1 mps 757 mmHg 82%

    27 November, Wednesday

    Time Temperature Precipitation Wind Pressure Humidity
    00:00 +13°C° 0 mm 1 mps 757 mmHg 82%
    01:00 +13°C° 0 mm 1 mps 757 mmHg 83%
    02:00 +13°C° 0 mm 2 mps 757 mmHg 83%
    03:00 +12°C° 0 mm 2 mps 757 mmHg 83%
    04:00 +12°C° 0 mm 2 mps 757 mmHg 84%
    05:00 +12°C° 0 mm 2 mps 757 mmHg 83%
    06:00 +12°C° 0 mm 2 mps 757 mmHg 83%
    07:00 +12°C° 0 mm 2 mps 757 mmHg 83%
    08:00 +14°C° 0 mm 2 mps 757 mmHg 77%
    09:00 +15°C° 0 mm 2 mps 758 mmHg 72%
    10:00 +17°C° 0 mm 2 mps 758 mmHg 67%
    11:00 +17°C° 0 mm 2 mps 757 mmHg 66%
    12:00 +18°C° 0 mm 2 mps 757 mmHg 65%
    13:00 +18°C° 0 mm 2 mps 757 mmHg 64%
    14:00 +18°C° 0 mm 3 mps 757 mmHg 70%
    15:00 +17°C° 0 mm 3 mps 757 mmHg 76%
    16:00 +16°C° 0 mm 3 mps 757 mmHg 82%
    17:00 +14°C° 0 mm 4 mps 757 mmHg 83%
    18:00 +14°C° 0 mm 4 mps 757 mmHg 84%
    19:00 +14°C° 0 mm 5 mps 757 mmHg 85%
    20:00 +13°C° 0.2 mm 5 mps 757 mmHg 85%
    21:00 +13°C° 0.2 mm 6 mps 757 mmHg 85%
    22:00 +13°C° 0.2 mm 6 mps 758 mmHg 85%
    23:00 +13°C° 0.2 mm 6 mps 757 mmHg 84%

    28 November, Thursday

    Time Temperature Precipitation Wind Pressure Humidity
    00:00 +13°C° 0.2 mm 6 mps 757 mmHg 84%
    01:00 +12°C° 0.2 mm 7 mps 757 mmHg 83%
    02:00 +12°C° 0.2 mm 7 mps 757 mmHg 81%
    03:00 +13°C° 0.2 mm 6 mps 757 mmHg 80%
    04:00 +14°C° 0.2 mm 6 mps 757 mmHg 78%
    05:00 +14°C° 0.2 mm 6 mps 757 mmHg 77%
    06:00 +14°C° 0.2 mm 6 mps 757 mmHg 77%
    07:00 +14°C° 0.2 mm 6 mps 757 mmHg 76%
    08:00 +14°C° 0.3 mm 6 mps 758 mmHg 76%
    09:00 +15°C° 0.3 mm 7 mps 758 mmHg 75%
    10:00 +15°C° 0.3 mm 7 mps 758 mmHg 75%
    11:00 +15°C° 0.5 mm 7 mps 757 mmHg 75%
    12:00 +16°C° 0.5 mm 8 mps 757 mmHg 74%
    13:00 +16°C° 0.5 mm 8 mps 757 mmHg 74%
    14:00 +16°C° 0.7 mm 9 mps 757 mmHg 74%
    15:00 +16°C° 0.7 mm 9 mps 756 mmHg 74%
    16:00 +16°C° 0.7 mm 10 mps 756 mmHg 75%
    17:00 +14°C° 0.6 mm 10 mps 756 mmHg 76%
    18:00 +14°C° 0.6 mm 10 mps 756 mmHg 78%
    19:00 +14°C° 0.6 mm 10 mps 756 mmHg 80%
    20:00 +14°C° 1.4 mm 10 mps 756 mmHg 82%
    21:00 +14°C° 1.4 mm 10 mps 756 mmHg 84%
    22:00 +14°C° 1.4 mm 10 mps 756 mmHg 87%
    23:00 +13°C° 5.4 mm 8 mps 756 mmHg 90%
    Show more